Vertical_Velocity
-2 -0 -4 -2 -0 2 11 5 -1 4 -1 -2 7 1 -3 -0 -0 -0 -0 4 2 3 -0 2 0 2 3 1 -10 3 1 -1 1 5 -1 0 1 -2 -0 0 2 2 -1 -1 -3 -1 -2
-6 -5 -2 5 -0 -1 1 5 9 1 3 0 0 7 -4 -2 1 -1 -2 5 1 5 -1 1 1 1 1 -1 -1 3 2 -2 1 1 0 -0 -7 -0 -0 -1 1 1 2 -2 -1 -4 -0
-0 -2 -3 -4 -3 -0 -0 -1 5 5 4 2 -1 2 1 -2 -2 -1 1 1 2 4 -1 -1 2 2 2 -29 -1 2 4 1 -0 2 -2 -0 6 -1 4 -0 2 -0 1 -1 -1 -3 -2
1 -4 0 1 -5 -1 -3 -3 -2 15 5 2 4 2 6 -2 1 2 -0 -0 2 3 2 -0 1 2 -11 1 -1 -6 3 1 -1 0 -2 0 1 -0 7 -1 -2 2 2 1 -3 2 -6
-3 -0 1 -4 -5 -2 2 -4 -3 8 11 2 2 9 0 3 -0 -1 2 1 1 1 2 3 1 2 -12 -1 -3 2 1 0 4 4 1 6 3 -0 3 2 1 3 -1 1 -4 -1 -0
-6 -7 -4 1 -1 1 -2 -0 -2 -3 1 10 6 2 10 2 1 0 -1 7 2 4 7 2 1 -0 -0 -2 0 -1 4 4 1 3 4 5 1 1 2 4 -5 -1 1 -0 -1 0 -0
-4 -5 -5 1 -7 -5 0 -3 -1 -2 -1 1 1 6 10 16 -3 2 2 2 -3 0 4 -12 -9 -0 0 1 2 -0 5 3 2 2 -1 0 3 -2 -6 -2 -1 1 2 1 -3 -3 2
-6 -5 -5 -6 5 -4 -1 -1 -3 1 -2 -0 6 6 11 10 3 4 5 -4 -1 5 -2 -5 -1 1 2 4 1 1 4 -3 0 -1 1 -1 -2 -4 -0 1 2 2 2 -6 -6 -2 11
-10 -2 1 -6 -13 -1 -1 -1 -2 -1 2 -7 0 4 9 10 3 13 -5 -5 -1 -1 1 -5 0 -2 -11 6 -3 -2 1 1 -2 2 -0 -1 -7 1 2 0 4 -1 1 -2 2 -2 -4
-2 0 -4 -3 -11 -4 1 0 -2 6 -2 -2 -16 19 11 26 29 -3 -3 -3 -3 -2 -2 -7 1 -1 3 4 -4 -6 1 -8 2 -5 -0 -2 -8 1 1 -0 2 6 -1 1 1 4 -3
3 6 2 -16 -12 -2 -2 -8 4 1 -2 -2 -19 30 28 14 -17 -6 -16 -5 0 -3 -6 -3 1 2 2 -9 1 3 0 7 -2 -2 0 -14 0 2 6 -15 1 -9 1 -1 0 1 7
3 2 -2 2 -5 5 3 2 15 -1 2 -4 -4 5 28 35 2 4 5 -2 -4 -16 -15 1 1 0 4 2 1 1 -1 10 0 4 4 -4 0 -1 -6 -3 -1 -0 3 2 1 3 11
4 8 -6 -3 10 2 0 -1 0 -7 -2 0 10 -13 14 -1 -25 1 4 -7 -6 -2 -3 2 0 1 -1 1 2 1 1 5 -1 5 2 3 -5 -1 2 2 3 7 4 -1 7 9 -5
-2 -0 -2 -3 -5 1 19 -1 -1 3 -1 0 -0 -13 -9 13 7 -7 7 -2 -2 -6 -2 0 -1 1 -1 -3 -1 -0 3 2 3 -0 1 0 3 2 -4 -4 -8 -4 -6 -4 -3 -0 -4
3 -3 8 -4 -12 -0 -2 -4 8 5 -4 8 5 9 -31 56 3 0 -8 2 -11 -2 -5 -2 5 1 1 2 -1 5 1 -1 -3 -3 1 0 -4 2 2 -2 -3 1 5 -24 7 -2 5
-2 3 -2 5 7 -4 -2 2 -14 -2 30 9 2 -3 -17 29 6 2 -0 -5 -2 -0 -2 0 -3 -1 -1 -1 5 4 0 -5 -3 -4 -1 -4 -1 -2 -0 0 -0 -0 -3 5 5 2 0
2 -1 6 -1 7 -2 -3 4 -10 1 9 1 30 -3 -14 29 18 13 -2 -3 -0 -1 -4 -4 -1 1 -2 -2 -2 -1 -4 -5 1 1 0 -1 -1 -4 -0 -1 -7 5 4 2 -0 -1 -2
2 -1 1 5 2 -3 3 0 -2 8 -5 7 2 -5 17 -1 2 -1 -1 -4 -2 0 3 -0 0 0 -3 -1 0 1 -3 -2 -1 -4 -2 -7 -2 -0 -14 -3 -3 -3 -4 -3 2 -6 -1
1 1 -3 3 4 -3 1 -2 2 14 13 -1 -1 1 47 3 -2 2 3 -0 0 2 -0 1 -0 -0 -0 -0 -1 -1 -0 -5 -0 -1 -8 -4 -1 1 3 6 5 1 -1 -2 -0 1 -4
1 3 -0 0 -4 1 -0 1 1 -12 1 20 5 1 22 18 3 -6 -0 -1 1 -1 -2 0 1 1 4 2 0 -0 -0 -2 1 -2 2 -1 1 -0 -5 -3 -0 3 2 1 0 6 -7
2 -5 4 -4 2 -6 0 2 4 -2 13 15 -2 0 -8 -0 5 1 2 -1 1 0 0 2 0 2 -3 1 2 -0 0 -0 3 1 0 2 1 3 -4 -2 3 -3 -1 -0 3 -12 4
-5 0 -6 2 4 -6 1 10 -4 6 -4 2 0 -3 9 -0 3 3 1 -4 -1 1 3 0 3 -1 1 1 -5 -1 0 0 -5 6 1 1 -2 1 -2 -0 3 2 -0 0 -0 -0 3
7 1 -4 1 -3 -2 -3 3 11 -8 -1 -1 -3 9 -5 -0 3 4 -6 -4 -6 1 -2 -2 -5 4 3 -8 -5 -7 1 0 -1 -6 -0 0 1 1 -6 1 1 10 -17 -3 -2 0 -6
5 -1 1 2 -6 -2 -3 -6 -10 -1 13 14 7 -5 1 1 1 -7 -0 -1 -1 -2 -1 -1 4 4 -6 2 1 9 2 1 1 -0 -4 -1 0 1 -3 -0 2 -9 -0 -5 -7 -3 1
-0 8 0 0 -6 -3 -4 -1 3 3 2 4 4 7 4 1 -5 6 3 -1 1 -1 2 3 -3 -9 3 -2 1 2 -0 3 -2 -1 2 -1 -1 -1 3 0 -1 -0 2 -5 -7 -11 -3
-1 2 -0 3 -2 -3 -3 -4 2 3 5 3 6 -11 5 -5 -1 -5 -1 -2 -2 -0 0 -1 4 4 2 1 2 0 -2 -3 -1 -2 0 1 0 3 -2 1 1 2 0 -1 0 -4 -4
1 -1 0 2 -5 -2 2 -7 7 -1 1 4 5 10 10 -4 2 -3 -3 -6 -1 0 -1 -0 -2 1 5 0 2 -0 -1 -2 -2 -1 -0 1 1 -2 -1 -0 -8 -2 0 -0 -0 -18 0
1 -1 -1 1 2 0 3 0 4 2 -2 2 -4 -2 -1 -0 0 -0 -1 -5 0 0 -1 -0 4 3 3 3 -0 -2 0 -3 -0 -2 -3 -4 -2 -1 -0 0 -7 1 2 -2 -7 -0 -0
-3 1 -3 -2 -1 -5 -2 -4 3 -5 -6 -3 -3 5 11 2 -1 -2 -0 1 0 -1 -3 0 -1 -0 -2 -0 1 1 0 1 -2 -2 1 -3 -8 -7 -9 -11 -3 -0 1 1 1 -2 -1
Height
1492 1489 1486 1484 1482 1479 1477 1477 1476 1476 1476 1476 1476 1475 1476 1475 1475 1476 1477 1476 1476 1476 1476 1477 1477 1478 1479 1480 1475 1476 1476 1476 1477 1479 1481 1486 1488 1490 1491 1490 1488 1486 1484 1484 1484 1484 1483
1490 1487 1483 1480 1477 1475 1472 1470 1470 1470 1470 1471 1472 1471 1472 1472 1473 1473 1474 1474 1475 1474 1475 1476 1475 1476 1477 1477 1473 1475 1475 1476 1478 1479 1482 1484 1486 1488 1489 1488 1488 1484 1482 1482 1481 1481 1481
1491 1487 1482 1478 1474 1470 1467 1466 1463 1463 1464 1465 1466 1467 1468 1469 1469 1470 1471 1472 1473 1473 1473 1475 1475 1474 1474 1469 1469 1471 1473 1475 1477 1479 1481 1483 1485 1488 1486 1486 1485 1482 1482 1479 1477 1478 1477
1489 1484 1480 1476 1471 1467 1463 1461 1459 1456 1457 1459 1460 1463 1463 1465 1466 1467 1468 1470 1472 1472 1472 1473 1474 1473 1469 1466 1466 1468 1470 1473 1476 1478 1481 1482 1484 1484 1486 1484 1482 1482 1481 1481 1471 1471 1473
1486 1482 1478 1473 1468 1464 1460 1457 1454 1452 1450 1451 1454 1456 1458 1460 1462 1464 1466 1468 1469 1470 1471 1472 1473 1472 1466 1464 1464 1466 1468 1471 1474 1477 1479 1481 1483 1483 1484 1485 1483 1481 1480 1478 1474 1467 1468
1484 1479 1475 1470 1464 1460 1456 1452 1448 1446 1444 1443 1447 1450 1453 1454 1457 1460 1463 1465 1466 1468 1470 1472 1472 1475 1464 1462 1462 1463 1465 1470 1473 1475 1478 1479 1479 1480 1482 1484 1479 1476 1481 1477 1476 1467 1465
1481 1477 1471 1466 1461 1455 1451 1447 1443 1440 1438 1437 1438 1442 1446 1450 1452 1456 1460 1463 1468 1469 1466 1462 1462 1461 1460 1461 1462 1463 1463 1467 1471 1473 1477 1477 1478 1473 1475 1480 1480 1483 1482 1479 1474 1470 1470
1479 1474 1469 1462 1457 1451 1446 1442 1438 1434 1431 1431 1430 1434 1439 1443 1446 1450 1454 1457 1459 1461 1460 1458 1459 1460 1459 1459 1460 1461 1463 1467 1470 1472 1474 1478 1474 1472 1474 1477 1480 1480 1482 1478 1472 1471 1467
1476 1471 1465 1459 1454 1447 1442 1437 1433 1429 1425 1423 1422 1426 1432 1437 1442 1444 1448 1453 1458 1460 1460 1453 1451 1453 1455 1460 1458 1458 1460 1463 1466 1471 1472 1473 1467 1466 1471 1473 1476 1478 1482 1480 1478 1474 1467
1473 1467 1462 1455 1450 1443 1437 1432 1427 1424 1420 1416 1415 1418 1424 1430 1436 1439 1444 1451 1457 1460 1466 1450 1448 1447 1449 1455 1455 1453 1456 1460 1465 1467 1469 1466 1463 1467 1468 1469 1473 1474 1473 1474 1475 1478 1474
1469 1462 1457 1451 1446 1439 1433 1426 1421 1417 1414 1412 1408 1410 1416 1419 1423 1433 1437 1447 1456 1460 1484 1445 1446 1446 1447 1451 1449 1449 1453 1457 1459 1464 1468 1460 1462 1463 1463 1462 1467 1466 1467 1469 1470 1470 1471
1465 1459 1453 1446 1441 1435 1428 1421 1415 1411 1407 1405 1404 1403 1407 1408 1420 1427 1435 1444 1456 1470 1471 1443 1443 1444 1445 1448 1447 1449 1452 1457 1457 1460 1460 1458 1457 1458 1456 1455 1460 1462 1466 1467 1467 1469 1460
1460 1454 1449 1442 1436 1430 1423 1416 1409 1405 1399 1397 1396 1396 1400 1396 1410 1421 1431 1442 1459 1467 1437 1439 1437 1442 1442 1444 1446 1447 1450 1451 1452 1455 1454 1454 1454 1455 1454 1455 1456 1461 1468 1468 1460 1460 1445
1457 1450 1444 1438 1432 1425 1419 1411 1404 1398 1394 1392 1391 1393 1395 1393 1404 1415 1425 1439 1453 1431 1435 1431 1435 1440 1441 1442 1443 1445 1445 1446 1446 1452 1450 1449 1447 1448 1448 1447 1448 1452 1456 1460 1454 1450 1449
1452 1446 1440 1434 1428 1422 1415 1408 1399 1393 1387 1387 1387 1388 1396 1387 1399 1413 1420 1433 1428 1425 1423 1430 1436 1438 1440 1437 1439 1441 1439 1436 1436 1444 1448 1450 1447 1437 1437 1437 1445 1450 1449 1443 1445 1438 1439
1447 1441 1436 1430 1424 1418 1411 1405 1397 1389 1384 1384 1383 1386 1391 1387 1397 1411 1419 1420 1421 1417 1419 1424 1428 1428 1429 1433 1438 1438 1436 1431 1435 1434 1438 1441 1442 1434 1433 1438 1440 1439 1440 1448 1451 1442 1433
1443 1437 1431 1426 1420 1415 1409 1403 1395 1386 1381 1380 1379 1382 1387 1386 1399 1410 1411 1417 1415 1414 1415 1421 1422 1424 1426 1429 1431 1430 1429 1427 1424 1425 1432 1440 1445 1441 1436 1433 1432 1438 1439 1436 1436 1438 1440
1439 1433 1427 1422 1416 1410 1405 1400 1393 1385 1379 1374 1376 1383 1383 1389 1398 1404 1407 1408 1410 1411 1415 1417 1420 1419 1423 1425 1428 1432 1430 1422 1417 1422 1429 1431 1434 1435 1425 1421 1420 1422 1425 1429 1434 1443 1426
1435 1429 1423 1418 1413 1407 1402 1396 1387 1383 1379 1376 1377 1380 1383 1390 1390 1398 1403 1406 1409 1410 1411 1414 1416 1418 1418 1419 1426 1423 1421 1412 1414 1415 1418 1424 1425 1425 1417 1421 1423 1421 1421 1420 1420 1421 1420
1432 1426 1420 1414 1409 1404 1398 1393 1386 1380 1376 1376 1377 1377 1383 1389 1389 1395 1400 1405 1409 1408 1410 1411 1411 1414 1415 1414 1415 1413 1416 1408 1408 1412 1414 1420 1420 1414 1404 1399 1411 1414 1407 1409 1415 1421 1411
1429 1424 1417 1412 1407 1402 1395 1389 1381 1376 1369 1366 1370 1371 1375 1379 1386 1392 1399 1399 1404 1407 1407 1408 1410 1410 1409 1408 1408 1411 1408 1407 1405 1411 1417 1420 1411 1408 1400 1400 1404 1403 1400 1402 1404 1397 1402
1427 1421 1415 1409 1405 1399 1393 1387 1383 1374 1364 1366 1365 1365 1374 1380 1385 1389 1396 1397 1396 1400 1404 1403 1405 1403 1405 1405 1401 1403 1400 1401 1401 1408 1412 1411 1404 1403 1394 1394 1392 1396 1400 1397 1391 1394 1395
1424 1418 1413 1407 1402 1398 1392 1385 1378 1372 1370 1368 1364 1364 1368 1378 1384 1390 1388 1392 1392 1396 1398 1398 1400 1401 1399 1397 1397 1398 1398 1396 1397 1400 1405 1408 1406 1400 1383 1371 1371 1387 1377 1382 1382 1384 1389
1421 1417 1411 1406 1400 1395 1390 1385 1381 1377 1374 1371 1367 1367 1368 1377 1379 1381 1386 1390 1392 1394 1396 1393 1397 1398 1396 1394 1393 1395 1395 1393 1393 1393 1394 1400 1403 1400 1386 1377 1365 1359 1355 1367 1374 1385 1388
1418 1414 1410 1405 1400 1395 1390 1385 1381 1377 1372 1367 1365 1366 1365 1371 1377 1381 1385 1387 1389 1392 1393 1392 1393 1393 1393 1394 1392 1391 1395 1392 1387 1387 1388 1390 1394 1393 1377 1377 1363 1364 1366 1371 1376 1379 1379
1415 1411 1407 1403 1400 1395 1390 1384 1378 1374 1368 1364 1363 1364 1367 1370 1376 1377 1382 1385 1387 1389 1390 1388 1389 1390 1392 1391 1389 1385 1387 1388 1391 1385 1387 1391 1392 1390 1382 1382 1368 1361 1364 1366 1376 1374 1363
1413 1408 1404 1401 1397 1393 1390 1386 1380 1374 1367 1362 1360 1364 1366 1368 1373 1375 1378 1381 1384 1386 1388 1387 1387 1386 1387 1385 1385 1384 1384 1383 1387 1389 1384 1388 1388 1389 1386 1384 1378 1364 1363 1368 1380 1370 1356
1410 1405 1401 1396 1392 1389 1385 1381 1378 1373 1368 1364 1363 1366 1369 1370 1373 1374 1375 1377 1380 1382 1385 1385 1385 1381 1381 1379 1380 1379 1384 1383 1381 1381 1382 1383 1382 1387 1390 1386 1390 1362 1363 1366 1363 1360 1360
1408 1403 1399 1394 1390 1386 1383 1379 1376 1373 1369 1366 1366 1365 1367 1370 1372 1373 1374 1375 1376 1378 1381 1382 1380 1377 1375 1375 1378 1374 1375 1383 1380 1381 1376 1381 1374 1378 1377 1376 1364 1361 1361 1359 1359 1360 1360